Погода в Бесскорбной

Россия / Краснодарский край     44°38′38″N   41°18′30″E
темп.,
°C
ветер,
м/с
пор.,
м/с
влажн.,
%
обл.,
%
осадки,
мм/ч
давл.,
гПа
погр.,
м
16 апреля, пт
пт1600:00+8ююв22933 1.0 101916
03:00+8юв359296 1.0 101873
06:00+8юв479398 0.0 1018133
09:00+15вюв4569100 0.0 1018502
12:00+19в45485 0.0 10161463
15:00+13зсз101289100 0.9 1018504
18:00+13ссв1186100 1.6 1019297
21:00+10св2297100 1.7 102045
17 апреля, сб
сб1700:00+9сз2398100 0.0 101952
03:00+10зсз2298100 0.5 102070
06:00+9зсз51094100 2.9 1021642
09:00+9зсз3994100 4.1 1022560
12:00+9зсз2391100 1.3 1023324
15:00+9ссв0194100 2.6 1023150
18:00+8вюв1296100 2.3 1023138
21:00+8вюв3594100 2.3 1023186
18 апреля, вс
вс1800:00+7вюв379499 0.0 1022161
03:00+8в4993100 0.1 1020259
06:00+8в41094100 0.3 1019328
09:00+9вюв4991100 1.1 1018447
12:00+16вюв6773100 0.1 1015658
15:00+16вюв347765 0.4 1015600
18:00+15св118687 0.3 101523
21:00+12ююв129356 0.3 101714
19 апреля, пн
пн1900:00+10ююв2295100 0.0 101616
03:00+11юв2293100 0.0 101525
06:00+11юв3392100 0.0 101542
09:00+15ссв2380100 0.0 1015263
12:00+17с347489 0.0 1014598
15:00+20всв4563100 0.0 1012988
18:00+18в497659 0.0 1010319
21:00+16вюв71672100 0.0 1007444
20 апреля, вт
вт2000:00+15юв61175100 0.0 1005222
03:00+15вюв71269100 0.0 1003168
06:00+14юв41174100 0.0 1003168
09:00+15ссз6882100 0.1 1004328
12:00+16сз7868100 0.1 10091166
15:00+10зсз61285100 0.2 1011812
18:00+10зюз2992100 8.4 10131074
21:00+9юз2391100 12.4 1014117